Location: Goettingen
(51.5300°N, 9.9433°E)
Time: 03:58:55
(UTC+01:00)

ISS - Pass Details

Date: 12 March 2026
Orbit: 417 x 426 km, 51.6° (Epoch: 16 March)

Event Time Altitude Azimuth Distance (km) Brightness Sun altitude
Rises 18:55:51 0° 189° (S) 2,371 0.1 -6.5°
Reaches altitude 10° 18:59:47 10° 143° (SE) 1,510 -1.3 -7.1°
Maximum altitude 19:00:11 10° 136° (SE) 1,501 -1.4 -7.1°
Drops below altitude 10° 19:00:36 10° 129° (SE) 1,511 -1.4 -7.2°
Enters shadow 19:01:35 - 113° (ESE) 1,617 -1.4 -7.4°
